Location: Caltech
(34.1382°N, 118.1253°W)
Time: 13:25:26
(UTC-07:00)

Daily predictions for brighter satellites

Satellite Brightness Start Highest point End
(mag) Time Altitude Azimuth Time Altitude Azimuth Time Altitude Azimuth
ATLAS CENTAUR Rocket 4.4 20:08:16 10° WSW 20:14:51 66° S 21:20:14 10° ESE
ATLAS CENTAUR Rocket 4.4 20:08:16 10° WSW 20:14:51 66° S 21:20:15 10° ESE
S3M 4.3 20:31:03 10° N 20:36:56 48° E 20:42:49 10° SSE
CZ-2D R/B 3.4 20:33:32 10° S 20:37:24 80° WSW 20:41:17 10° NNW
Cosmos 1655 Rocket 4.1 20:31:16 10° S 20:37:29 88° W 20:43:44 10° N
Cosmos 1437 Rocket 4.3 20:34:46 10° NNE 20:37:38 20° ENE 20:40:30 10° SE
Resurs 01 Rocket 4.0 20:37:34 10° SSW 20:41:04 23° W 20:44:35 10° NW
Delta 2 Rocket 2.9 20:43:38 10° WSW 20:47:24 82° SSE 20:50:50 10° E
deb Chang Zheng 4 3.9 20:45:01 10° NNE 20:49:11 45° E 20:53:20 10° S
OAO 2 Rocket 4.2 20:45:55 10° SSW 20:50:34 31° SSE 20:55:15 10° E
USA 186 1.9 20:48:19 10° S 20:50:36 48° W 20:52:58 10° NNW
Cosmos 1538 Rocket 4.1 20:45:49 10° N 20:51:09 65° ENE 20:56:27 10° SSE
Meteor 1-21 Rocket 4.1 20:50:56 10° S 20:56:27 75° E 21:01:59 10° NNE
Cosmos 540 Rocket 4.5 20:53:11 10° NNW 20:58:07 46° WSW 21:03:00 10° S
Cosmos 1515 Rocket 3.6 21:00:33 10° N 21:04:57 63° E 21:09:16 10° SSE
Cosmos 371 Rocket 3.5 21:01:25 10° NNW 21:06:12 73° WSW 21:10:59 10° S
ALOS 3.4 21:01:58 10° S 21:06:23 42° W 21:10:49 10° NNW
Cosmos 2151 3.7 21:03:19 11° SSE 21:06:55 34° E 21:10:44 10° NNE
CZ-4 DEB 3.9 21:05:49 10° S 21:08:52 42° W 21:11:56 10° NNW
USA 229 DEB 4.1 21:02:41 10° SW 21:09:34 70° WNW 21:16:33 10° NNE
USA 229 4.1 21:02:47 10° SW 21:09:40 71° WNW 21:16:39 10° NNE
Cosmos 2292 4.2 21:07:35 10° N 21:10:36 83° E 21:13:55 11° S
Cosmos 773 Rocket 4.2 21:05:53 10° N 21:11:00 55° ENE 21:15:04 16° SE
Tiangong 1 1.2 21:08:06 10° SW 21:11:05 47° SSE 21:14:04 10° ENE
Nimbus 7 Rocket 4.3 21:10:49 10° NNE 21:16:40 72° ESE 21:22:30 10° S
Cosmos 1726 4.5 21:16:34 10° ENE 21:17:13 10° ENE 21:17:46 10° E
Cosmos 1441 Rocket 4.1 21:14:30 10° SSW 21:18:11 49° W 21:21:50 10° N
Cosmos 2219 3.4 21:16:02 10° S 21:21:35 52° ESE 21:27:09 10° NNE
Meteor 2-20 Rocket 4.4 21:17:41 10° S 21:23:49 75° E 21:29:58 10° N
Cosmos 1151 Rocket 3.1 21:21:38 10° N 21:25:54 61° E 21:28:42 21° SSE
SPOT 5 3.0 21:23:11 20° SE 21:26:06 52° ENE 21:30:42 10° N
Cosmos 2058 3.6 21:25:16 23° SE 21:27:03 34° E 21:30:46 10° NNE
PSLV R/B 3.8 21:27:00 29° ESE 21:27:59 39° ENE 21:30:53 10° N
Cosmos 2266 Rocket 4.0 21:22:06 10° S 21:28:26 87° E 21:34:41 10° N
Cosmos 1805 Rocket 4.2 21:27:06 22° SE 21:29:18 36° E 21:33:23 10° NNE
NOSS 3-1 (A) 3.7 21:24:01 10° S 21:29:20 40° ESE 21:35:03 10° NE
Cosmos 1437 2.6 21:31:27 19° S 21:33:40 80° E 21:36:57 10° N
Cosmos 2322 3.9 21:28:32 10° NNW 21:34:12 60° ENE 21:37:34 24° SE
Cosmos 2315 Rocket 4.3 21:28:58 10° N 21:34:57 49° E 21:38:37 23° SE
Cosmos 2322 Rocket 3.3 21:31:06 10° NW 21:36:19 41° WSW 21:41:32 10° S
Envisat 3.0 21:36:48 17° S 21:40:41 81° WSW 21:45:48 10° NNW
Cosmos 1908 3.5 21:39:18 10° NNW 21:43:10 65° W 21:45:38 21° S
ERS-1 Rocket 4.1 21:39:41 10° S 21:44:24 41° W 21:49:10 10° NNW
Cosmos 2360 Rocket 2.1 21:40:20 10° NNW 21:46:00 78° ENE 21:49:07 28° SSE
H-2A R/B 2.9 21:42:20 14° S 21:46:00 50° W 21:50:26 10° NNW
Cosmos 304 Rocket 3.7 21:41:30 10° NNW 21:46:19 75° ENE 21:48:35 31° SSE
SL-16 R/B 3.5 21:42:04 10° NW 21:47:10 35° WSW 21:52:14 10° SSW
Aureole 3 4.5 21:42:43 10° S 21:49:48 90° W 21:55:32 10° N
GPS 2-04 Rocket1 4.5 21:46:45 10° W 21:50:05 21° SSW 21:51:00 20° SSW
MetOp-B 4.1 21:47:14 27° SSE 21:50:16 75° ENE 21:55:37 10° N
Cosmos 1674 4.1 21:47:46 10° SSW 21:51:19 37° W 21:54:55 10° NNW
Cosmos 1666 Rocket 3.8 21:50:24 36° SE 21:51:39 48° E 21:55:54 10° NNE
Cosmos 1707 Rocket 4.1 21:47:31 10° N 21:51:40 41° E 21:52:39 36° ESE
ATLAS 2AS CENTAUR R/B 3.8 21:50:45 24° ESE 21:51:47 25° ESE 21:57:50 10° NE
Cosmos 2112 Rocket 4.0 21:51:08 10° NNW 21:56:22 75° ENE 21:58:39 35° SSE
Cosmos 2298 Rocket 4.0 21:54:39 20° S 21:58:17 68° ESE 22:03:34 10° NNE
Cosmos 1937 Rocket 3.9 22:00:08 36° SE 22:01:11 41° ESE 22:06:03 10° NNE
Cosmos 1939 Rocket 4.5 21:58:24 14° SSW 22:01:11 30° W 22:04:40 10° NW
Meteor 1-11 4.2 21:58:45 23° S 22:02:27 76° E 22:08:11 10° NNE
DELTA 2 R/B (1) 3.5 22:00:22 10° WNW 22:05:57 83° NNE 22:08:22 35° ESE
Cosmos 1300 2.6 22:02:53 10° N 22:06:42 63° E 22:07:01 60° ESE
Cosmos 2227 Rocket 3.0 22:08:49 31° ESE 22:08:49 31° ESE 22:13:41 10° NE
Cosmos 1745 Rocket 4.4 22:06:59 35° SE 22:08:51 44° E 22:14:40 10° NNE
YAOGAN 6 2.7 22:09:51 57° SSW 22:10:27 72° W 22:14:04 10° NNW
NOSS 3-1 (C) 3.7 22:10:38 10° SW 22:16:21 65° WNW 22:22:40 10° NNE
Terra 2.8 22:17:55 30° E 22:18:21 31° ENE 22:22:30 10° N
H-2A R/B 2.7 22:19:46 37° E 22:20:47 40° ENE 22:25:49 10° N
SL-23 DEB 3.7 22:19:33 10° NW 22:23:46 63° NE 22:23:46 63° NE
Cosmos 2333 Rocket 3.4 22:18:59 10° N 22:23:53 28° ENE 22:25:14 25° E
Cosmos 1455 4.1 22:26:16 10° NNE 22:28:13 20° NE 22:28:13 20° NE
Delta 2 Rocket 3.6 22:26:27 10° W 22:29:16 51° NW 22:29:16 51° NW
SPOT 1/Viking Rocket 3.9 22:31:25 40° SSW 22:33:02 60° W 22:38:08 10° NNW
OAO 2 Rocket 3.3 22:29:48 10° WSW 22:35:08 78° SSE 22:36:15 56° E
COSMOS 2428 2.6 22:30:03 10° NNW 22:35:45 84° WSW 22:37:03 55° S
Cosmos 2297 Rocket 2.9 22:36:45 35° E 22:36:45 35° E 22:41:05 10° NE
CZ-4C R/B 3.8 22:38:19 49° N 22:38:19 49° N 22:40:57 10° N
Cosmos 2242 Rocket 3.4 22:34:35 10° N 22:39:05 87° E 22:39:10 86° SE
Cosmos 1898 Rocket 4.2 22:39:32 21° SW 22:42:44 51° WNW 22:47:49 10° N
ARGOS 3.5 22:41:19 44° SSW 22:42:48 60° W 22:48:09 10° NNW
DELTA 2 DEB (DPAF) 4.1 22:47:23 77° WSW 22:47:25 77° WSW 22:51:55 10° NNW
Cosmos 2219 Rocket 2.3 22:42:07 10° NNW 22:47:38 58° ENE 22:48:13 55° E
Tiangong 1 3.4 22:45:02 10° W 22:47:00 24° NW 22:47:00 24° NW
CARTOSAT-1 3.8 22:48:24 63° NE 22:48:24 63° NE 22:52:15 10° N
Sich 1 4.3 22:48:19 30° WSW 22:49:39 37° W 22:53:46 10° NNW
Cosmos 1862 Rocket 4.4 22:46:05 10° N 22:49:24 41° NE 22:49:24 41° NE
SL-08 RB Rocket 4.2 22:51:00 49° WSW 22:51:17 50° W 22:55:39 10° NNW
Cosmos 1633 Rocket 4.3 22:51:00 31° WSW 22:52:08 37° W 22:56:12 10° NNW
Cosmos 1726 3.4 22:49:14 10° NNW 22:52:27 36° W 22:52:27 36° W
FALCON 9 R/B 3.7 22:33:26 10° W 22:59:09 88° N 23:03:14 29° E
Cosmos 1703 4.4 23:00:50 39° WNW 23:00:50 39° WNW 23:04:17 10° N
Lacrosse 4 Rocket 4.0 22:58:52 10° NNE 23:00:54 13° NE 23:00:59 13° NE
Cosmos 1271 Rocket 3.9 22:59:12 10° NNW 23:02:06 41° NW 23:02:06 41° NW
Cosmos 1980 3.8 22:59:28 10° NNW 23:05:03 58° ENE 23:05:12 58° ENE
DMSP B5D2-2 4.2 23:03:50 10° N 23:09:00 66° WNW 23:09:39 60° WSW
Cosmos 2082 4.0 23:16:22 53° WSW 23:17:30 64° WNW 23:23:12 10° NNE
Cosmos 2237 Rocket 2.2 23:12:13 10° NNW 23:17:50 70° ENE 23:17:50 70° ENE
Cosmos 1626 4.2 23:30:01 26° NW 23:30:01 26° NW 23:32:12 10° NNW
COSMOS 2455 3.6 23:26:44 10° N 23:32:23 41° ENE 23:32:41 41° ENE
ATLAS 2AS CENTAUR R/B 3.3 23:38:04 29° SW 23:42:07 61° NW 23:50:03 10° NNE
Cosmos 2227 Rocket 3.8 23:50:34 23° W 23:52:43 30° WNW 23:57:39 10° N
Terra 3.8 23:56:48 21° W 23:56:48 21° W 23:59:44 10° NW
